Regional Weather Roundup
Issued by NWS Little Rock, AR

Home | Current Version | Previous Version | Graphics & Text | Print | Product List | Glossary On
Versions: 1 2 3 4 5 6 7 8 9 10 11 12 13 14 15 16 17 18 19 20 21 22 23 24 25 26 27 28 29 30 31
000
ASUS44 KLZK 040805
RWRLZK

WEATHER ROUNDUP FOR ARKANSAS
NATIONAL WEATHER SERVICE LITTLE ROCK AR
200 AM CST SUN DEC 04 2016

NOTE: "FAIR" INDICATES FEW OR NO CLOUDS BELOW 12,000 FEET WITH NO
SIGNIFICANT WEATHER AND/OR OBSTRUCTIONS TO VISIBILITY.

ARZ001-003-010-029-040900-
NORTHWEST ARKANSAS

CITY           SKY/WX    TMP DP  RH WIND       PRES   REMARKS
FAYETTEVILLE   CLOUDY    43  42  97 E3        30.01F
FORT SMITH     CLOUDY    43  41  93 E9        30.03S FOG
HARRISON       CLOUDY    38  38 100 E10       30.03F FOG
BENTONVILLE    CLOUDY    41  36  81 E7        30.01F
ROGERS         CLOUDY    40  39  97 E8        30.01F
SILOAM SPGS    CLOUDY    43  39  87 E5        30.01S
HIGHFILL       CLOUDY    42  40  92 E8        30.01F
$$

ARZ004-005-016-040900-
NORTH CENTRAL ARKANSAS

CITY           SKY/WX    TMP DP  RH WIND       PRES   REMARKS
BATESVILLE     CLOUDY    39  37  93 NE6       30.10F
FLIPPIN        CLOUDY    39  34  81 E7        30.05F
MTN HOME       CLOUDY    38  37  97 SE9       30.06F
$$

ARZ040-041-040900-
WEST CENTRAL ARKANSAS

CITY           SKY/WX    TMP DP  RH WIND       PRES   REMARKS
MENA           CLOUDY    46  45  93 E8        30.00R
MOUNT IDA      CLOUDY    45  43  93 E3        29.98F
$$

ARZ009-017-025-026-028-040900-
NORTHEAST ARKANSAS

CITY           SKY/WX    TMP DP  RH WIND       PRES   REMARKS
CORNING        CLOUDY    39  39 100 NE7       30.15R FOG
JONESBORO      LGT RAIN  41  39  93 NE12      30.11S FOG
NEWPORT        LGT RAIN  41  40  96 NE10      30.11S FOG
WALNUT RIDGE   CLOUDY    39  36  87 NE9       30.13R
BLYTHEVILLE    CLOUDY    42  39  89 N12       30.12R
$$

ARZ022-023-033-042-044-040900-
CENTRAL ARKANSAS

CITY           SKY/WX    TMP DP  RH WIND       PRES   REMARKS
LITTLE ROCK    DRIZZLE   42  42 100 NE10      30.06F FOG
N LITTLE ROCK    N/A     41  40  96 E7        30.06F
JACKSONVILLE   DRIZZLE   42  42  99 NE12      30.04F FOG
SEARCY         LGT RAIN  42  41  96 NE8       30.11R FOG
HOT SPRINGS    CLOUDY    44  43  96 E8        30.02F
RUSSELLVILLE   CLOUDY    42  40  92 E7        30.04F
CLINTON        CLOUDY    41  41 100 CALM      30.08R
$$

ARZ036-040900-
EAST ARKANSAS

CITY           SKY/WX    TMP DP  RH WIND       PRES   REMARKS
WEST MEMPHIS   LGT RAIN  43  43 100 N6        30.07R
$$

ARZ050-053-066-070-073-040900-
SOUTHWEST ARKANSAS

CITY           SKY/WX    TMP DP  RH WIND       PRES   REMARKS
ARKADELPHIA    LGT RAIN  45  45 100 NE6       30.02F FOG
CAMDEN         CLOUDY    46  43  87 NE6       30.01F FOG
TEXARKANA      CLOUDY    46  46 100 NE7       29.97S
EL DORADO      LGT RAIN  46  46 100 NE7       30.00R FOG
DE QUEEN       CLOUDY    47  46  97 E7        29.98S
$$

ARZ056-057-069-040900-
SOUTHEAST ARKANSAS

CITY           SKY/WX    TMP DP  RH WIND       PRES   REMARKS
PINE BLUFF     LGT RAIN  44  44 100 N8        30.05R FOG
STUTTGART      CLOUDY    45  39  81 N10       30.06R
MONTICELLO     CLOUDY    46  44  93 VRB3      30.02R

$$






USA.gov is the U.S. government's official web portal to all federal, state and local government web resources and services.